sat.trackr.live / text

‹ back to catalog

STARLINK-35239

NORAD 65623 · 2025-210B

PAYLOAD ACTIVE UNKNOWN

§ Identity

Operator
Country
US
Launch date
2025-09-18
Launch site
AFETR
Launch vehicle
Mass (kg)
RCS (m²)

Purposes: comms

External: N2YO · Heavens-Above · Gunter

§ Orbital elements

Epoch: 2026-05-24T21:18:42.407712Z

Period
93.85 min
Inclination
53.1599°
Eccentricity
0.0001097
Mean motion
15.34399795 rev/d
Perigee alt
462.0 km
Apogee alt
463.5 km
Semi-major
6,840.8 km
B*
8.9287e-4
RAAN
311.9969°
Arg perigee
87.0076°
Mean anomaly
273.1052°
Rev number
3,941

§ Raw data

STARLINK-352391 65623U 25210B   26144.88799083  .00029911  00000+0  89287-3 0  99992 65623  53.1599 311.9969 0001097  87.0076 273.1052 15.34399795 39411

JSON: /api/v1/satellites/65623 · /tle

For live sub-satellite position, see the globe view (requires WebGL).

§ Visibility from observer

Set your observer location to see the next 7 days of passes ≥ 10°. The values pass through the URL so the page stays shareable.

No JS? Fill the form by hand. The geolocation button needs JavaScript.